STARLINK-1740, 46566

Orbit data source: Space-Track

STARLINK-1740, 46566 is a payload satellite owned by SpaceX/Seattle (US) in LEO that was launched on Tue, 06 Oct 2020 UTC via an FALCON 9 launch vehicle from the Air Force Eastern Test Range (AFETR). Payload-class satellites include a variety of spacecraft equipped with specific instruments for various scientific and technological missions. These include communications satellites like Starlink; space stations such as the ISS; scientific satellites like the Hubble; Earth observation satellites from companies like Planet Labs, Umbra, and HawkEye 360; GPS; miniature CubeSats for education and research; and military/defense satellites.

Loading next visibility...
Identifier
46566, 2020-070AL
Orbit
LEO
Country
Flag of USUS
Related business
Manufacturer
SpaceX/Seattle
Mission
Partially operational Commercial Communications
Bus & Motor
STARLINK, Unknown motor
Mass
260 kg wet, ~248 kg dry
Launch date (UTC)
2020-10-06 (5 years ago)
Launch vehicle
FALCON 9
Launch site
Air Force Eastern Test Range (AFETR)
Object type
Payload
Rocket body
Debris
Shape & HBR
Box + 1 Pan, 10.1 m
Radar Cross Section
13.562 m², Large (>1 m²)

Expand to show TLE details & history
Last TLE update: 15 hours ago

TLE from 15 hours ago
0 STARLINK-1740
1 46566U 20070AL  25347.33336806  .00385438  00000-0  30525-2 0  9997
2 46566  53.0491 150.2455 0003269  81.9855 101.7368 15.69614347  5905
Epoch: 2025-12-13T08:00Z
TLE epoch observation values (Epoch: 2025-12-13T08:00:03.000Z)
Latitude
-3.10345°
Longitude
130.29512°
Altitude
361.807 km
Speed
7.693 km/s
True Right ascension
22h 10m 16s
True Declination
-3° 05' 02"
Sunlit
Object was in daylight at epoch
Visualization orbit readout
Latitude
Unknown
Longitude
Unknown
Altitude
Unknown
Speed
Unknown
Apparent Right ascension
Unknown
Apparent Declination
Unknown
Sunlit
N/A
Visualization observer readout
Local Sidereal Time
21:46:46
Azimuth
Unknown
Elevation
Unknown
Doppler factor
Unknown
Orbital elements
Apogee altitude
362.482 km
Perigee altitude
358.077 km
Semi-major axis
6,738.416 km
Eccentricity
0.00033
Inclination
53.0491°
RAAN
150.2455°
Arg. of periapsis
81.9855°
True anomaly
101.77347°
Mean anomaly
101.7368°
Eccentric anomaly
101.75514°
Mean motion
3.9238 °/min
Orbital period
91.75 mins
BSTAR
0.0030525
Loading maneuver chart data...
Computing Atmospheric mass density...

Documentation

Showing up to 5 results
|